Tracking 27126 objects as of 30-Mar-2023
HD Live streaming from Space Station
objects crossing your sky now

ASTRON

Track ASTRON now!
ASTRON is classified as:


NORAD ID: 13901
Int'l Code: 1983-020A
Perigee: 39,334.7 km
Apogee: 164,842.7 km
Inclination: 75.8 °
Period: 5,924.6 minutes
Semi major axis: 108459 km
RCS: 7.9432 m2 (large)
Launch date: March 23, 1983
Source: Commonwealth of Independent States (former USSR) (CIS)
Launch site: TYURATAM MISSILE AND SPACE COMPLEX (TTMTR)
Your satellite tracking list
Your tracking list is empty




NASA's NSSDC Master Catalog

Two Line Element Set (TLE):
1 13901U 83020A   23072.42116162  .00000355  00000-0  00000-0 0  9997
2 13901  75.7830  68.6164 5785930   7.8001 359.4262  0.24305267  8255
Source of the keplerian elements: AFSPC